Location: Ballingbuur
(53.0000°N, 5.7667°E)
Time: 18:55:59
(UTC+00:00)

Cosmos 1356 - Pass Details

Date: 16 April 2021
Orbit: 438 x 442 km, 81.1° (Epoch: 13 May)

Event Time Altitude Azimuth Distance (km) Brightness Sun altitude
Rises 20:39:57 0° 342° (NNW) 2,454 8.3 -16.3°
Reaches altitude 10° 20:42:04 10° 336° (NNW) 1,577 7.2 -16.5°
Maximum altitude 20:45:23 47° 262° (W) 599 4.2 -16.8°
Enters shadow 20:47:13 23° 198° (SSW) 1,004 4.9 -17.0°
